Flag for Portugal Weather past 2 weeks in Beja, Portugal

Now
57 °F

Fog.


Feels Like: 56 °F
Forecast: 56 / 87 °F
Wind: 7 mph from Northwest

Location: Beja Airport

Current Time: Jul 2, 2015 at 6:27:45 AM

Latest Report: Jul 2, 2015 at 6:00 AM


Visibility: N/A

Pressure: 30.12 "Hg

Humidity: 100%

Dew point: 57 °F

Location of BejaLocation

Historic Weather in Beja — Graph

°F

Beja temperature yesterday

Maximum temperature yesterday: 79 °F (at 6:00 PM)
Minimum temperature yesterday: 63 °F (at 2:00 AM)
Average temperature yesterday: 69 °F

Past Weeks' High & Low Weather Summary

 TemperatureHumidityPressure
High104 °F (Jun 27, 5:00 PM)100% (Jun 23, 3:00 AM)30.18 "Hg (Jun 23, 3:00 AM)
Low55 °F (Jun 24, 5:00 AM)10% (Jun 26, 7:00 PM)29.89 "Hg (Jun 24, 10:00 PM)
Average77 °F48%30.05 "Hg
* Reported Jun 17 5:00 AM — Jul 2 5:00 AM, Beja, Weather by CustomWeather, © 2015

Note: Actual official high and low records may vary slightly from our data, if they occured in-between our weather recording intervals... More about our weather records

Advertising

Beja weather history for previous 24 hours

 ConditionsComfort  
Time TempWeatherWind HumidityBarometerVisibility
5:00 AM
Thu, Jul 2
59 °FClear.8 mph94%30.12 "Hg10 mi
4:00 AM59 °FClear.8 mph94%30.12 "Hg10 mi
3:00 AM61 °FClear.10 mph94%30.12 "Hg10 mi
2:00 AM63 °FClear.10 mph88%30.12 "Hg10 mi
1:00 AM64 °FClear.8 mph88%30.12 "Hg10 mi
12:00 AM66 °FClear.10 mph83%30.09 "Hg10 mi
11:00 PM
Wed, Jul 1
66 °FClear.10 mph83%30.07 "Hg10 mi
10:00 PM68 °FPassing clouds.14 mph78%30.07 "HgN/A
9:00 PM72 °FPassing clouds.16 mph69%30.04 "HgN/A
8:00 PM73 °FPassing clouds.16 mph61%30.01 "HgN/A
7:00 PM79 °FPassing clouds.16 mph48%30.01 "HgN/A
6:00 PM79 °FPassing clouds.10 mph42%30.01 "HgN/A
5:00 PM77 °FPassing clouds.16 mph54%30.01 "HgN/A
4:00 PM77 °FPassing clouds.9 mph47%30.01 "HgN/A
3:00 PM77 °FPassing clouds.8 mph44%30.01 "HgN/A
2:00 PM73 °FPassing clouds.9 mph53%30.01 "HgN/A
1:00 PM75 °FPassing clouds.10 mph50%30.01 "HgN/A
12:00 PM75 °FPassing clouds.7 mph47%30.01 "HgN/A
11:00 AM72 °FPassing clouds.7 mph57%30.01 "HgN/A
10:00 AM70 °FPassing clouds.8 mph64%30.01 "HgN/A
9:00 AM66 °FScattered clouds.6 mph73%30.01 "HgN/A
8:00 AM63 °FScattered clouds.3 mph88%30.01 "HgN/A
7:00 AM63 °FPassing clouds.6 mph88%30.01 "HgN/A
6:00 AM63 °FPassing clouds.6 mph88%29.98 "HgN/A
Weather by CustomWeather, © 2015

See weather overviewHow to use our weather pages